Nasa Shuttle, FL

1:57 PM EDT on June 27, 2017 (GMT -0400)
Nasa Shuttle

Weather History for KTTS - May, 2013

Change the Weather History Date:

Wednesday, May 22, 2013

  Actual Average Record
Temperature  
Mean Temperature 74 °F -  
Max Temperature 83 °F 82 °F 91 °F (1998)
Min Temperature 67 °F 66 °F 61 °F (2014)
Cooling Degree Days 10    
Growing Degree Days 24 (Base 50)    
Moisture  
Dew Point 71 °F    
Average Humidity 90    
Maximum Humidity 100    
Minimum Humidity 70    
Precipitation  
Precipitation 0.09 in - - ()
Sea Level Pressure  
Sea Level Pressure 30.07 in    
Wind  
Wind Speed 4 mph (ESE)    
Max Wind Speed 12 mph    
Max Gust Speed 20 mph    
Visibility 7 miles    
Events Rain , Thunderstorm    
Averages and records for this station are not official NWS values.
T = Trace of Precipitation, MM = Missing Value Source: NWS Daily Summary

Daily Weather History Graph

Daily Weather History Graph

Search for Another Location

Airport or City:

Trip Planner

Search our weather history database for the weather conditions in past years. The results will help you decide how hot, cold, wet, or windy it might be!

Date:

Astronomy

May. 22, 2013 Rise Set
Actual Time 6:28 AM EDT 8:11 PM EDT
Civil Twilight 6:02 AM EDT 8:37 PM EDT
Nautical Twilight 5:30 AM EDT 9:08 PM EDT
Astronomical Twilight 4:57 AM EDT 9:41 PM EDT
Moon 5:41 PM EDT (5/22) 4:18 AM EDT (5/22)
Length of Visible Light 14h 34m
Length of Day
13h 42m
Waxing Gibbous, 91% of the Moon is Illuminated
May 22
Waxing Gibbous
May 25
Full
May 31
Last Quarter
Jun 8
New
Jun 16
First Quarter

Hourly Weather History & Observations

Time (EDT) Temp. Heat Index Dew Point Humidity Pressure Visibility Wind Dir Wind Speed Gust Speed Precip Events Conditions
12:58 AM 71.1 °F - 70.7 °F 99% 30.30 in 10.0 mi SSE 3.5 mph - N/A   Clear
1:58 AM 69.8 °F - 69.6 °F 99% 30.29 in 8.0 mi SE 3.5 mph - N/A   Clear
2:38 AM 69.8 °F - 69.8 °F 100% 29.95 in 2.5 mi SE 2.3 mph - N/A   Clear
2:43 AM 69.8 °F - 69.8 °F 100% 29.95 in 1.0 mi ESE 1.2 mph - N/A   Clear
2:48 AM 69.8 °F - 69.8 °F 100% 29.94 in 0.8 mi East 1.2 mph - N/A   Clear
2:58 AM 70.3 °F - 70.0 °F 99% 30.27 in 0.8 mi East 2.3 mph - N/A   Clear
3:03 AM 69.8 °F - 69.8 °F 100% 29.94 in 1.0 mi SE 2.3 mph - N/A   Clear
3:18 AM 69.8 °F - 69.8 °F 100% 29.94 in 0.8 mi ESE 2.3 mph - N/A   Clear
3:23 AM 69.8 °F - 68.0 °F 94% 29.94 in 1.2 mi ESE 2.3 mph - N/A   Clear
3:33 AM 68.0 °F - 68.0 °F 100% 29.94 in 0.8 mi ESE 2.3 mph - N/A   Clear
3:58 AM 67.3 °F - 67.1 °F 99% 30.27 in 0.8 mi ESE 3.5 mph - N/A   Clear
4:28 AM 68.0 °F - 68.0 °F 100% 29.94 in 2.0 mi Calm Calm - N/A   Clear
4:33 AM 68.0 °F - 68.0 °F 100% 29.94 in 1.2 mi Calm Calm - N/A   Clear
4:38 AM 68.0 °F - 68.0 °F 100% 29.94 in 0.8 mi NNE 2.3 mph - N/A   Clear
4:58 AM 67.1 °F - 66.7 °F 99% 30.28 in 0.8 mi Calm Calm - N/A   Clear
5:08 AM 68.0 °F - 68.0 °F 100% 29.95 in 1.0 mi NE 1.2 mph - N/A   Scattered Clouds
5:18 AM 68.0 °F - 68.0 °F 100% 29.95 in 1.2 mi Calm Calm - N/A   Partly Cloudy
5:33 AM 68.0 °F - 68.0 °F 100% 29.95 in 2.5 mi North 2.3 mph - N/A   Mostly Cloudy
5:38 AM 68.0 °F - 68.0 °F 100% 29.95 in 4.0 mi North 1.2 mph - N/A   Scattered Clouds
5:43 AM 68.0 °F - 68.0 °F 100% 29.95 in 9.0 mi North 1.2 mph - N/A   Mostly Cloudy
5:53 AM 68.0 °F - 68.0 °F 100% 29.95 in 10.0 mi NNE 3.5 mph - N/A   Scattered Clouds
5:58 AM 68.2 °F - 68.2 °F 100% 30.28 in 6.0 mi ENE 3.5 mph - N/A   Scattered Clouds
6:08 AM 68.0 °F - 68.0 °F 100% 29.95 in 2.5 mi ENE 2.3 mph - N/A   Partly Cloudy
6:09 AM 68.0 °F - 68.0 °F 100% 29.96 in 2.5 mi ENE 2.3 mph - N/A   Light Drizzle
6:14 AM 69.8 °F - 69.8 °F 100% 29.96 in 4.0 mi SW 2.3 mph - N/A Rain Light Rain
6:38 AM 69.8 °F - 69.8 °F 100% 29.96 in 10.0 mi NNW 1.2 mph - N/A Thunderstorm Partly Cloudy
6:46 AM 69.8 °F - 69.8 °F 100% 29.96 in 10.0 mi ENE 2.3 mph - N/A Thunderstorm Light Drizzle
6:58 AM 69.3 °F - 69.3 °F 100% 30.29 in 10.0 mi ESE 2.3 mph - 0.01 in   Light Drizzle
7:01 AM 69.8 °F - 69.8 °F 100% 29.96 in 10.0 mi Variable 1.2 mph - N/A   Clear
7:58 AM 70.7 °F - 70.7 °F 100% 30.30 in 10.0 mi Calm Calm - 0.00 in   Scattered Clouds
8:58 AM 75.6 °F - 75.2 °F 99% 30.31 in 10.0 mi Variable 1.2 mph - 0.01 in   Clear
9:58 AM 79.0 °F - 72.3 °F 80% 30.32 in 10.0 mi Variable 3.5 mph - N/A   Scattered Clouds
10:13 AM 78.8 °F - 71.6 °F 78% 29.99 in 10.0 mi SSE 3.5 mph - N/A   Mostly Cloudy
10:58 AM 81.5 °F 85.5 °F 70.7 °F 70% 30.31 in 10.0 mi Variable 2.3 mph - N/A   Mostly Cloudy
11:43 AM 82.4 °F 87.2 °F 71.6 °F 70% 29.99 in 10.0 mi NE 9.2 mph - N/A   Overcast
11:58 AM 81.3 °F 85.6 °F 71.4 °F 72% 30.33 in 10.0 mi NNE 9.2 mph - N/A   Overcast
12:31 PM 78.8 °F - 71.6 °F 78% 30.01 in 6.0 mi NNE 10.4 mph 19.6 mph N/A Rain Light Rain
12:36 PM 77.0 °F - 71.6 °F 83% 30.01 in 1.5 mi East 11.5 mph - N/A Rain , Thunderstorm Light Rain
12:41 PM 77.0 °F - 71.6 °F 83% 30.01 in 0.8 mi ENE 9.2 mph - N/A Rain , Thunderstorm Light Rain
12:46 PM 75.2 °F - 69.8 °F 83% 30.00 in 1.0 mi East 9.2 mph - N/A Rain , Thunderstorm Heavy Rain
12:51 PM 75.2 °F - 71.6 °F 89% 30.00 in 1.5 mi East 5.8 mph - N/A Rain Heavy Rain
12:56 PM 75.2 °F - 71.6 °F 89% 30.00 in 1.8 mi East 8.1 mph - N/A Rain Light Rain
12:58 PM 75.2 °F - 71.8 °F 89% 30.32 in 1.8 mi East 8.1 mph - 0.07 in Rain Light Rain
1:03 PM 77.0 °F - 73.4 °F 89% 29.99 in 2.0 mi ESE 5.8 mph - N/A Rain Light Rain
1:08 PM 77.0 °F - 73.4 °F 89% 29.99 in 4.0 mi East 8.1 mph - N/A   Light Drizzle
1:10 PM 77.0 °F - 75.2 °F 94% 29.99 in 4.0 mi East 6.9 mph - N/A   Mostly Cloudy
1:15 PM 77.0 °F - 75.2 °F 94% 29.99 in 6.0 mi ESE 8.1 mph - N/A   Mostly Cloudy
1:20 PM 77.0 °F - 75.2 °F 94% 29.98 in 6.0 mi SE 9.2 mph - N/A   Mostly Cloudy
1:29 PM 77.0 °F - 73.4 °F 89% 29.98 in 10.0 mi SSE 8.1 mph - N/A Rain Light Rain
1:34 PM 77.0 °F - 73.4 °F 89% 29.98 in 10.0 mi SE 6.9 mph - N/A Rain Light Rain
1:46 PM 77.0 °F - 73.4 °F 89% 29.98 in 10.0 mi ESE 5.8 mph - N/A   Overcast
1:48 PM 77.0 °F - 73.4 °F 89% 29.98 in 10.0 mi ESE 5.8 mph - N/A   Light Drizzle
1:58 PM 77.5 °F - 74.3 °F 90% 30.31 in 10.0 mi SSE 5.8 mph - 0.00 in   Light Drizzle
2:00 PM 78.8 °F - 75.2 °F 89% 29.97 in 10.0 mi ESE 4.6 mph - N/A   Overcast
2:34 PM 78.8 °F - 73.4 °F 83% 29.97 in 10.0 mi East 8.1 mph - N/A   Overcast
2:38 PM 78.8 °F - 73.4 °F 83% 29.97 in 10.0 mi East 10.4 mph - N/A   Mostly Cloudy
2:39 PM 80.6 °F 85.4 °F 73.4 °F 79% 29.97 in 10.0 mi East 10.4 mph - N/A   Mostly Cloudy
2:58 PM 82.0 °F 87.7 °F 73.6 °F 75% 30.30 in 10.0 mi ESE 9.2 mph - 0.00 in   Mostly Cloudy
3:33 PM 82.4 °F 87.2 °F 71.6 °F 70% 29.95 in 10.0 mi ESE 10.4 mph - N/A   Mostly Cloudy
3:38 PM 82.4 °F 87.2 °F 71.6 °F 70% 29.95 in 10.0 mi ESE 10.4 mph - N/A   Mostly Cloudy
3:43 PM 82.4 °F 87.2 °F 71.6 °F 70% 29.95 in 10.0 mi ESE 11.5 mph - N/A   Mostly Cloudy
3:53 PM 82.4 °F 87.2 °F 71.6 °F 70% 29.95 in 10.0 mi ESE 11.5 mph 17.3 mph N/A   Scattered Clouds
3:58 PM 81.9 °F 86.6 °F 72.0 °F 72% 30.27 in 10.0 mi SE 8.1 mph - N/A   Scattered Clouds
4:58 PM 78.8 °F - 71.4 °F 78% 30.27 in 10.0 mi East 8.1 mph - N/A   Scattered Clouds
5:14 PM 78.8 °F - 71.6 °F 78% 29.94 in 10.0 mi ESE 8.1 mph - N/A   Light Drizzle
5:22 PM 78.8 °F - 71.6 °F 78% 29.94 in 10.0 mi Variable 6.9 mph - N/A   Scattered Clouds
5:58 PM 78.1 °F - 71.2 °F 79% 30.27 in 10.0 mi SE 6.9 mph - 0.00 in   Mostly Cloudy
6:58 PM 77.2 °F - 69.6 °F 77% 30.28 in 10.0 mi SSE 8.1 mph - N/A   Clear
7:58 PM 75.4 °F - 70.7 °F 85% 30.27 in 10.0 mi SE 5.8 mph - N/A   Partly Cloudy
8:58 PM 73.9 °F - 71.1 °F 91% 30.28 in 10.0 mi SSE 2.3 mph - N/A   Clear
9:06 PM 73.4 °F - 71.6 °F 94% 29.96 in 10.0 mi SSE 2.3 mph - N/A Rain Light Rain
9:15 PM 71.6 °F - 69.8 °F 94% 29.95 in 10.0 mi SE 2.3 mph - N/A   Clear
9:58 PM 71.6 °F - 71.1 °F 98% 30.28 in 10.0 mi ESE 4.6 mph - 0.00 in   Clear
10:58 PM 72.0 °F - 71.1 °F 97% 30.30 in 10.0 mi ESE 2.3 mph - N/A   Clear
11:58 PM 71.2 °F - 70.7 °F 98% 30.29 in 10.0 mi SSE 3.5 mph - N/A   Clear